Wind_Speed
8 7 8 10 10 8 6 7 8 8 8 7 7 7 7 7 6 6 5 5 7 5 4 4 3 2 2 2 3 5 6 5 4 2 2 2 1 1 0 1 3 5 3
11 9 11 12 13 11 9 8 9 9 9 8 8 8 8 8 7 7 6 6 9 10 7 4 2 2 2 4 5 6 6 5 3 2 1 0 2 3 2 1 3 8 5
11 12 12 14 15 14 12 11 11 11 10 10 10 10 9 9 9 8 7 6 5 9 8 6 4 3 3 5 6 6 6 5 3 1 1 3 2 2 2 2 3 4 7
10 12 12 13 16 16 14 13 12 12 12 11 11 11 10 10 10 9 8 9 10 7 7 7 6 4 5 6 6 5 4 3 2 1 1 5 4 3 2 2 3 3 5
9 10 12 13 16 16 16 15 14 14 14 13 12 12 13 11 9 8 8 9 9 8 7 7 7 6 6 7 6 3 2 1 0 1 1 2 2 1 2 1 2 3 3
15 13 12 13 16 18 18 17 17 16 16 15 13 12 14 14 11 9 8 9 10 9 9 8 8 7 7 8 6 3 1 1 1 1 2 2 1 2 2 1 1 2 3
23 21 19 15 16 19 19 19 19 19 18 17 15 14 13 12 11 10 9 10 11 10 10 10 10 9 9 8 6 2 2 2 1 2 3 3 2 3 3 1 2 3 4
27 27 25 20 18 21 22 22 22 22 21 18 16 16 13 13 12 12 11 10 12 12 11 11 11 11 10 9 5 3 2 3 2 2 2 3 3 3 2 2 4 4 4
28 28 30 28 22 22 22 25 25 24 24 21 19 18 18 15 14 12 12 12 12 13 13 12 13 13 12 9 5 4 4 4 3 2 1 2 3 3 2 1 2 2 4
28 30 31 28 28 25 26 22 25 28 27 25 23 22 23 18 14 14 13 13 13 13 14 14 14 14 13 9 7 6 6 5 3 2 2 1 3 3 2 2 2 3 3
23 28 31 30 32 31 28 26 24 27 27 28 28 26 26 23 17 16 16 14 14 15 15 15 15 15 12 11 9 9 8 7 5 3 1 1 6 3 2 1 2 2 2
26 24 26 30 32 36 34 32 28 28 29 28 29 29 29 27 22 19 18 16 16 16 16 16 16 15 13 12 11 10 10 8 6 5 4 5 8 2 2 3 4 4 4
31 31 27 28 31 35 39 39 36 36 29 32 31 30 29 28 26 23 20 18 18 17 17 16 17 16 14 13 12 12 11 10 8 8 7 10 6 4 4 5 5 6 5
33 34 35 32 33 33 38 40 42 39 40 36 35 35 32 30 26 25 23 21 19 18 18 17 18 17 14 14 14 13 13 12 11 10 9 10 7 6 7 7 7 8 8
33 33 36 39 37 36 36 39 44 45 40 39 35 36 37 34 29 27 27 24 22 20 19 19 17 18 16 15 15 15 15 14 13 11 11 11 9 9 8 8 8 8 9
29 29 33 39 42 40 40 39 40 43 47 41 43 35 40 38 36 30 29 27 24 21 20 21 19 18 18 17 17 17 18 16 15 14 13 12 11 11 10 10 10 9 10
26 27 30 34 37 41 38 40 41 41 44 49 40 49 38 44 35 33 33 33 28 23 22 21 21 20 20 19 19 19 19 18 17 16 14 13 13 12 12 12 11 11 11
23 24 28 32 33 33 36 37 39 40 42 45 49 49 42 46 41 48 36 33 31 26 23 22 22 22 21 21 21 20 20 19 19 18 17 16 15 13 13 13 13 14 14
12 15 20 26 29 29 31 34 36 38 40 43 45 49 48 41 40 50 42 33 31 27 25 23 22 23 23 22 22 21 20 21 20 19 18 17 16 15 14 14 14 15 16
8 8 9 12 16 21 27 31 34 36 38 42 42 44 51 42 39 38 42 39 34 27 26 24 23 24 24 24 23 22 21 22 22 20 19 18 17 16 15 15 15 16 17
15 18 18 17 19 19 20 26 29 34 36 38 40 42 45 40 48 38 41 31 52 28 28 27 25 24 25 24 23 22 22 22 22 21 20 19 17 17 16 16 17 17 18
25 28 30 30 28 26 25 22 24 27 33 38 39 40 41 39 39 36 45 47 33 35 31 31 26 25 24 24 23 23 23 23 22 21 21 19 18 18 18 18 18 18 18
34 36 38 37 36 35 30 29 28 26 27 34 38 40 39 38 36 39 36 37 42 35 32 27 26 24 24 23 23 23 23 22 21 21 20 20 20 20 20 19 18 18 18
45 47 48 46 44 43 40 38 36 31 29 30 33 34 34 35 35 35 33 34 36 57 43 35 28 24 24 23 22 22 22 20 21 20 20 21 20 20 19 19 17 19 19
58 57 57 58 55 52 49 44 42 40 39 36 34 35 33 33 31 33 37 38 30 33 46 36 30 25 23 23 22 21 21 21 20 19 19 19 20 19 17 20 18 19 20
40 41 43 43 58 63 59 55 52 51 49 45 38 37 35 35 30 30 26 22 23 29 20 39 31 27 25 23 23 23 23 22 19 18 18 20 19 18 18 17 21 20 22
Wind_Direction
220 206 206 202 207 209 220 221 218 226 237 234 239 241 244 250 234 218 213 192 198 220 221 180 192 205 247 284 307 311 319 325 330 342 338 353 39 118 118 17 108 88 91
221 216 208 208 207 207 214 224 228 229 243 246 239 233 238 242 246 242 226 217 225 231 239 250 251 258 292 311 317 321 330 332 345 8 357 143 81 139 159 166 152 130 125
225 223 218 213 210 207 213 219 226 234 243 255 249 235 231 236 242 241 236 214 207 209 221 218 232 263 289 301 310 322 341 348 10 348 265 181 158 131 171 169 156 154 156
227 223 228 224 216 211 215 221 227 231 239 248 257 249 241 236 235 234 233 229 204 199 198 204 216 238 272 285 302 322 351 344 28 273 348 140 126 131 157 159 159 165 160
224 228 228 233 228 219 218 226 231 233 236 241 250 260 256 240 215 221 231 228 241 230 221 222 222 237 259 277 296 315 344 321 139 288 356 83 107 154 183 183 164 157 173
242 243 241 238 237 231 224 230 237 240 239 241 249 262 268 239 212 220 228 231 230 238 234 231 229 240 252 268 293 302 325 272 273 342 342 30 357 309 285 276 235 168 164
246 251 252 246 240 238 235 232 238 245 246 244 247 260 263 246 252 243 229 233 236 235 238 240 237 240 247 258 274 288 277 264 295 354 338 338 344 337 340 307 243 204 190
247 249 254 253 249 241 238 236 237 243 248 248 248 249 251 244 246 254 251 237 242 240 236 241 243 245 247 251 258 255 272 272 284 294 335 338 342 353 329 297 246 211 199
252 249 250 250 248 241 245 244 237 240 246 246 244 242 243 246 247 247 250 251 244 246 242 241 245 248 248 249 238 230 239 243 241 267 302 325 332 315 271 199 262 202 214
254 253 247 245 241 239 237 238 242 241 241 243 242 236 239 242 246 251 249 251 251 248 248 246 246 247 247 245 233 224 228 232 236 241 287 335 303 168 170 145 172 209 230
255 253 252 244 238 236 237 234 239 239 240 241 241 241 239 241 247 248 250 250 253 252 251 249 252 251 246 241 228 225 225 224 223 224 232 286 133 167 156 186 229 229 255
264 255 254 251 241 236 235 234 228 238 242 240 243 240 243 244 246 247 249 251 251 254 252 254 252 255 249 239 229 226 226 225 220 216 203 146 165 206 222 245 257 265 262
260 260 249 250 250 241 236 234 231 230 240 248 241 245 242 245 244 246 251 249 252 252 251 255 255 250 246 240 232 230 230 225 218 219 208 171 216 239 260 266 273 272 272
264 257 255 246 247 248 240 236 233 234 236 235 243 241 243 248 248 248 250 252 250 251 252 247 254 249 240 236 232 232 231 229 222 218 211 218 230 230 245 252 263 282 289
264 260 255 252 244 242 246 240 237 234 233 235 236 249 245 244 249 247 248 249 252 251 251 250 244 248 235 232 231 233 233 232 227 225 223 232 238 243 247 258 268 276 285
265 258 254 252 250 244 242 245 242 238 234 230 243 238 241 245 241 243 243 246 248 249 250 249 241 238 235 228 228 230 234 231 231 229 230 237 240 245 256 261 267 274 283
268 255 251 252 254 252 248 243 244 243 238 233 234 231 228 240 241 241 242 242 239 243 246 244 243 236 234 229 228 228 232 231 231 234 235 239 244 246 253 262 269 274 278
271 261 254 252 252 254 253 245 243 243 242 238 234 233 243 243 235 239 231 230 233 235 238 239 237 234 228 231 230 229 232 233 230 231 235 240 247 252 258 266 272 277 278
287 269 261 258 256 253 251 250 246 243 244 242 238 235 238 242 226 237 233 203 220 229 234 234 234 232 228 227 232 231 227 229 232 235 238 243 248 254 260 268 275 279 281
325 289 279 279 274 268 260 254 251 247 244 245 244 240 240 237 246 243 244 218 210 219 228 231 230 230 231 229 229 230 227 227 231 235 239 244 250 256 261 265 269 273 277
293 293 290 274 272 270 272 261 255 250 247 246 245 245 245 246 246 245 240 235 235 223 221 224 225 227 230 233 233 231 228 227 231 235 240 245 249 255 259 263 267 273 277
288 283 281 279 275 273 274 276 266 259 251 248 246 244 248 248 243 239 251 253 245 212 211 218 215 222 227 231 231 229 228 228 232 236 241 245 248 251 254 258 263 270 276
274 271 270 270 270 270 268 269 269 264 261 252 247 249 247 248 248 244 243 247 258 254 218 215 217 218 226 229 231 227 230 232 235 237 242 243 244 248 252 257 264 270 277
273 269 267 265 263 266 267 265 266 265 271 269 253 245 244 243 240 235 234 242 235 241 222 218 213 215 223 227 225 228 231 233 236 239 242 245 247 249 256 260 264 271 278
276 270 270 266 261 258 258 259 262 266 268 273 259 240 234 234 235 221 222 233 250 238 246 222 214 210 216 221 222 222 229 232 234 239 238 245 249 253 257 262 270 274 285
288 279 277 271 256 251 250 252 254 256 261 264 257 247 231 229 228 216 222 213 228 227 229 225 205 207 209 213 217 221 224 228 233 242 241 245 250 253 258 267 276 283 284
Height
3140 3140 3140 3141 3143 3144 3145 3146 3146 3147 3148 3147 3147 3148 3149 3149 3149 3149 3149 3150 3150 3150 3150 3151 3152 3151 3152 3151 3151 3150 3150 3150 3149 3149 3148 3148 3147 3148 3148 3148 3149 3149 3149
3139 3139 3139 3140 3141 3143 3144 3146 3147 3147 3148 3148 3147 3148 3148 3149 3149 3150 3149 3149 3149 3150 3150 3151 3151 3151 3151 3151 3151 3150 3150 3150 3149 3149 3148 3148 3148 3148 3149 3149 3150 3150 3150
3138 3138 3138 3139 3140 3141 3143 3144 3145 3147 3147 3148 3148 3147 3147 3148 3149 3150 3150 3149 3150 3149 3150 3151 3151 3151 3151 3150 3150 3150 3150 3150 3149 3149 3148 3148 3148 3148 3149 3149 3150 3150 3150
3138 3138 3138 3139 3139 3140 3141 3143 3144 3145 3146 3147 3148 3148 3147 3147 3148 3149 3150 3150 3149 3149 3150 3151 3151 3151 3151 3150 3150 3150 3150 3150 3150 3149 3149 3149 3149 3149 3149 3149 3149 3149 3150
3136 3137 3137 3138 3139 3139 3140 3142 3143 3143 3145 3146 3147 3147 3147 3147 3147 3148 3149 3149 3150 3150 3150 3151 3151 3151 3150 3150 3150 3151 3151 3151 3151 3150 3150 3149 3149 3149 3149 3149 3149 3149 3149
3134 3135 3136 3136 3137 3138 3138 3140 3141 3142 3143 3144 3145 3146 3146 3146 3145 3146 3147 3148 3149 3150 3150 3150 3150 3150 3150 3149 3150 3151 3152 3151 3151 3150 3150 3150 3149 3149 3150 3149 3149 3149 3149
3130 3131 3132 3134 3135 3136 3137 3137 3139 3140 3141 3142 3144 3145 3145 3145 3146 3147 3146 3147 3148 3148 3149 3149 3149 3149 3149 3148 3149 3151 3151 3152 3151 3150 3150 3150 3149 3149 3149 3149 3149 3149 3149
3125 3126 3128 3130 3132 3133 3133 3135 3136 3138 3139 3141 3141 3143 3143 3143 3144 3145 3146 3145 3147 3147 3147 3148 3148 3148 3147 3147 3148 3149 3150 3150 3150 3150 3149 3149 3149 3149 3148 3148 3148 3148 3149
3119 3121 3123 3125 3126 3129 3130 3131 3132 3134 3136 3137 3139 3140 3140 3141 3142 3142 3143 3144 3145 3146 3146 3146 3146 3146 3146 3147 3147 3148 3149 3149 3149 3149 3149 3148 3148 3148 3147 3147 3148 3148 3149
3115 3114 3117 3119 3121 3123 3125 3126 3128 3129 3131 3133 3135 3136 3138 3139 3139 3140 3141 3141 3143 3143 3144 3144 3144 3144 3145 3146 3147 3147 3148 3148 3148 3148 3148 3148 3148 3147 3147 3147 3148 3148 3149
3109 3110 3110 3112 3115 3117 3119 3121 3123 3125 3126 3128 3130 3132 3134 3136 3137 3137 3138 3138 3140 3140 3141 3142 3142 3142 3144 3145 3145 3146 3146 3147 3147 3147 3147 3147 3148 3147 3148 3147 3147 3148 3148
3103 3104 3105 3105 3107 3109 3111 3115 3118 3120 3122 3123 3125 3128 3130 3132 3134 3134 3135 3136 3136 3137 3138 3139 3139 3141 3143 3144 3145 3144 3145 3145 3146 3146 3146 3146 3147 3147 3147 3147 3147 3147 3147
3098 3097 3100 3100 3100 3103 3105 3107 3110 3113 3114 3118 3120 3123 3125 3127 3129 3131 3132 3132 3134 3134 3135 3136 3137 3137 3140 3142 3143 3143 3144 3144 3144 3145 3145 3146 3145 3145 3146 3147 3147 3146 3146
3089 3090 3091 3093 3094 3095 3097 3099 3102 3104 3108 3111 3114 3117 3119 3122 3125 3127 3129 3129 3130 3132 3133 3132 3133 3134 3137 3139 3141 3142 3142 3143 3143 3144 3144 3144 3144 3145 3145 3146 3146 3146 3145
3081 3082 3082 3083 3085 3088 3088 3091 3093 3097 3099 3104 3107 3110 3113 3116 3119 3122 3124 3125 3127 3128 3130 3130 3130 3131 3133 3136 3138 3139 3140 3141 3141 3142 3143 3143 3143 3143 3144 3144 3145 3145 3145
3071 3074 3074 3072 3074 3078 3080 3082 3085 3088 3092 3095 3099 3103 3105 3109 3112 3114 3117 3120 3122 3124 3125 3127 3127 3128 3130 3132 3134 3136 3137 3138 3139 3140 3141 3141 3142 3142 3142 3142 3143 3143 3143
3064 3065 3066 3066 3065 3067 3071 3074 3076 3079 3082 3086 3090 3093 3083 3098 3106 3110 3109 3113 3116 3118 3121 3122 3124 3124 3127 3128 3130 3132 3133 3135 3136 3137 3138 3139 3140 3141 3141 3141 3140 3140 3140
3057 3058 3060 3059 3059 3060 3062 3065 3068 3072 3074 3077 3081 3085 3085 3094 3094 3100 3098 3104 3110 3113 3115 3118 3119 3120 3122 3125 3126 3129 3130 3132 3134 3134 3135 3136 3137 3138 3138 3138 3138 3138 3137
3051 3053 3054 3054 3054 3055 3055 3057 3060 3063 3066 3069 3073 3077 3081 3086 3086 3094 3090 3089 3101 3108 3111 3113 3115 3116 3118 3120 3123 3125 3127 3128 3129 3131 3132 3133 3134 3135 3135 3136 3136 3136 3135
3051 3051 3051 3051 3050 3050 3050 3051 3052 3055 3058 3061 3065 3069 3073 3077 3079 3084 3086 3086 3092 3101 3106 3108 3109 3110 3113 3115 3118 3121 3123 3124 3126 3127 3128 3130 3131 3132 3132 3132 3132 3132 3131
3048 3047 3046 3046 3045 3045 3045 3045 3045 3047 3051 3053 3057 3060 3064 3068 3075 3077 3079 3082 3084 3093 3100 3103 3105 3105 3108 3111 3114 3117 3119 3121 3122 3124 3125 3126 3127 3128 3129 3129 3128 3128 3127
3042 3041 3039 3038 3038 3038 3038 3038 3038 3040 3042 3045 3048 3052 3056 3060 3067 3073 3074 3077 3084 3084 3090 3095 3097 3099 3103 3106 3110 3113 3115 3118 3118 3120 3121 3122 3123 3124 3124 3124 3124 3124 3124
3034 3032 3030 3029 3028 3028 3029 3030 3031 3032 3034 3038 3041 3045 3049 3054 3058 3064 3068 3072 3075 3081 3085 3087 3090 3092 3098 3102 3105 3108 3111 3113 3115 3115 3118 3119 3119 3120 3121 3121 3120 3121 3120
3022 3018 3017 3017 3017 3018 3020 3020 3021 3024 3027 3030 3035 3038 3041 3046 3052 3056 3062 3066 3071 3078 3076 3080 3083 3087 3093 3098 3101 3105 3107 3110 3110 3112 3113 3114 3115 3116 3117 3118 3117 3117 3116
3002 3002 3001 3001 3002 3003 3005 3009 3012 3015 3019 3022 3025 3029 3034 3037 3043 3050 3055 3059 3063 3063 3072 3076 3078 3081 3087 3094 3098 3101 3104 3106 3107 3108 3108 3110 3112 3112 3112 3114 3112 3112 3111
2982 2981 2980 2978 2979 2983 2987 2995 3000 3005 3009 3014 3018 3020 3025 3030 3035 3042 3049 3052 3056 3058 3064 3074 3072 3077 3082 3088 3093 3096 3099 3101 3103 3104 3104 3106 3107 3109 3108 3108 3109 3107 3107